Location: ???????
(55.4362°N, 38.1183°E)
Time: 18:17:57
(UTC+00:00)

Cosmos 1812 Rocket - Pass Details

Date: 17 June 2021
Orbit: 606 x 631 km, 82.5° (Epoch: 29 July)

Event Time Altitude Azimuth Distance (km) Brightness Sun altitude
Rises 21:58:22 0° 344° (NNW) 2,882 8.4 -10.9°
Reaches altitude 10° 22:00:39 10° 338° (NNW) 1,974 7.2 -10.9°
Maximum altitude 22:04:48 44° 266° (W) 849 4.2 -10.8°
Enters shadow 22:08:09 15° 198° (SSW) 1,673 5.1 -10.7°
